Regional Weather Roundup
Issued by NWS

Home | Current Version | Previous Version | Text Only | Print | Product List | Glossary On
Versions: 1 2 3 4 5 6 7 8 9 10 11 12 13 14 15 16 17 18 19 20 21 22 23 24 25 26 27 28 29 30 31 32 33 34 35 36 37 38 39 40 41 42 43 44 45 46 47 48 49 50
000
ASUS44 KOUN 221700
RWROK

WEATHER ROUNDUP FOR OKLAHOMA
NATIONAL WEATHER SERVICE NORMAN OK
1100 AM CST WED FEB 22 2017

NOTE: "FAIR" INDICATES FEW OR NO CLOUDS BELOW 12,000 FEET WITH NO
      SIGNIFICANT WEATHER AND/OR OBSTRUCTIONS TO VISIBILITY.

OKZ001>007-009>012-014-015-017-221800-
NORTHWEST OKLAHOMA AND THE PANHANDLE

CITY           SKY/WX    TMP DP  RH WIND       PRES   REMARKS
GAGE           SUNNY     68  29  23 W9        29.84F
GUYMON         SUNNY     73  27  18 W9        29.86S
ENID/WOODRING  MOSUNNY   64  48  55 S10       29.80F
$$

OKZ016-021>023-033>039-044-045-221800-
SOUTHWEST OKLAHOMA

CITY           SKY/WX    TMP DP  RH WIND       PRES   REMARKS
LAWTON/REGL    SUNNY     66  42  41 SW10      29.86S
FREDERICK      SUNNY     64  42  44 W9        29.83F
CLINTON        SUNNY     71  33  24 NW6       29.84F
HOBART         SUNNY     63  42  46 VRB7      29.86S
ALTUS AFB      SUNNY     62  38  40 W7        29.84F
$$

OKZ018>020-024>031-221800-
CENTRAL OKLAHOMA

CITY           SKY/WX    TMP DP  RH WIND       PRES   REMARKS
OKLAHOMA CITY  MOSUNNY   70  36  28 S13       29.83F
OKC/WILEY POST SUNNY     72  35  25 S21G28    29.82F
OKC/TINKER AFB SUNNY     68  38  33 S18       29.82F
STILLWATER       N/A     69  38  32 S8        29.82F
GUTHRIE        SUNNY     70  36  28 SW14      29.81F
$$

OKZ008-013-054>072-221800-
NORTHEAST OKLAHOMA

CITY           SKY/WX    TMP DP  RH WIND       PRES   REMARKS
TULSA          MOSUNNY   70  46  42 S12       29.82F
TULSA/JONES    SUNNY     70  44  39 S10       29.83F
PONCA CITY     SUNNY     68  40  35 SW12      29.80F
BARTLESVILLE   SUNNY     71  40  32 S10       29.84F
MUSKOGEE       SUNNY     68  53  58 S9        29.87F
$$

OKZ032-040>043-046>053-073>077-221800-
SOUTH CENTRAL/SOUTHEAST OKLAHOMA

CITY           SKY/WX    TMP DP  RH WIND       PRES   REMARKS
MCALESTER      MOSUNNY   71  50  47 S9        29.87F
$$




USA.gov is the U.S. government's official web portal to all federal, state and local government web resources and services.